Presure
255 318 297 296 285 284 285 284 283 285 291 294 296 302 342 293 300 296 310 320 341 342 338 350 346 352 342 359 339 359 357 264 343 176 282 305 279 260 257 248 236 232 232 226 221 224 227 228 185 222 221 221 146 222
284 306 294 284 284 282 276 275 296 298 301 295 308 302 325 293 283 297 306 319 354 335 345 358 356 356 360 372 348 336 349 341 343 336 269 290 291 268 250 254 257 249 243 236 233 223 227 230 232 230 228 231 229 228
329 304 286 285 279 277 293 300 301 303 305 320 408 417 316 295 283 294 307 326 363 336 371 368 357 373 367 344 331 321 327 328 319 312 304 266 288 291 258 122 260 245 246 246 249 239 238 232 227 239 248 130 90 239
317 295 287 277 280 293 296 308 316 314 324 398 397 417 376 280 279 297 315 349 345 373 369 377 339 349 329 323 317 315 96 321 314 306 311 275 269 283 278 272 269 201 259 224 250 249 250 250 249 248 252 258 260 261
307 286 279 282 291 304 321 325 337 383 384 385 405 400 347 267 281 305 334 360 366 377 351 261 330 245 310 309 306 309 308 308 306 307 314 310 270 273 278 278 282 280 265 256 256 255 258 262 258 256 259 261 273 285
295 281 282 293 310 329 412 418 435 404 387 406 434 380 304 274 295 330 345 374 360 337 325 312 309 305 301 194 303 299 301 303 297 306 304 309 138 265 268 270 276 278 280 281 283 283 288 287 281 272 275 267 260 263
282 281 292 308 326 405 404 431 419 398 413 373 373 309 285 273 321 399 306 309 320 322 313 304 297 297 298 301 302 302 151 218 302 237 113 273 293 269 259 254 258 261 260 261 259 260 255 253 260 290 305 305 302 299
279 286 303 320 407 392 406 407 396 362 367 370 311 287 269 302 323 313 308 307 304 297 278 298 288 301 298 294 302 103 205 309 307 219 310 278 316 315 246 124 265 282 282 283 285 301 299 295 292 292 292 289 286 284
284 296 317 380 377 363 351 348 357 368 372 310 297 280 269 306 306 306 296 296 300 295 300 297 306 308 300 301 310 297 96 303 94 169 301 307 266 109 298 295 294 291 289 288 288 290 288 287 283 283 283 283 283 282
285 315 307 364 338 335 351 351 349 352 310 305 285 275 287 269 292 298 293 292 291 292 288 292 290 284 290 296 289 128 291 293 293 128 217 173 284 292 289 288 285 285 285 286 284 138 281 282 281 279 278 276 276 278
308 293 312 348 330 332 336 337 332 314 300 295 275 271 275 263 287 279 291 299 289 284 285 284 285 291 287 286 287 285 283 285 288 285 103 274 279 253 276 275 274 275 276 277 275 275 274 273 273 272 271 273 275 278
288 296 345 341 325 327 331 334 333 301 291 288 278 267 268 269 274 284 281 279 288 281 275 272 273 277 275 281 276 274 276 276 214 271 276 274 261 177 264 266 267 268 269 269 264 263 263 263 262 235 266 266 272 214
290 306 368 335 320 326 325 332 333 294 293 288 291 278 269 263 264 265 245 260 264 260 261 257 259 240 264 267 265 267 259 265 263 267 267 263 273 279 276 273 276 274 277 275 277 276 282 249 250 261 343 276 301 350
296 310 357 343 316 321 324 326 327 335 289 283 282 280 283 281 269 265 262 258 250 247 246 250 253 254 258 260 248 266 270 274 270 274 275 276 282 291 304 309 389 395 393 395 355 349 344 348 350 354 357 347 341 342
311 326 357 349 330 320 323 318 323 325 309 284 289 288 292 281 290 282 280 279 277 283 284 292 309 346 370 367 369 367 366 363 365 365 368 355 358 315 311 306 304 301 298 292 289 287 289 295 289 292 303 312 358 360
312 350 369 352 341 335 328 322 318 318 321 323 306 287 289 291 293 289 290 298 314 356 371 338 326 308 295 290 287 284 295 295 287 290 292 291 290 291 284 281 282 285 285 284 284 284 283 280 281 281 285 285 286 297
314 334 348 339 338 341 346 348 348 345 338 339 336 341 342 343 345 359 358 319 302 282 279 289 291 289 285 276 277 276 263 270 271 274 271 269 267 268 271 273 276 278 280 280 281 284 286 290 300 295 287 288 287 284
315 315 317 313 309 307 306 309 315 316 318 320 319 319 299 292 278 270 271 275 279 271 266 270 267 260 258 261 266 269 265 265 265 262 260 257 257 258 259 260 262 262 263 266 266 267 270 273 274 275 277 281 286 289
309 314 313 311 309 306 303 304 300 297 292 283 272 270 265 277 279 274 265 262 261 264 256 253 254 258 254 254 258 255 252 246 246 248 253 252 250 249 254 254 259 263 263 259 256 254 264 272 274 271 268 265 263 261
286 308 307 300 297 295 287 277 272 268 277 281 280 272 267 266 261 256 256 256 254 247 249 248 246 241 251 254 245 251 257 256 254 251 252 254 255 257 252 248 266 269 272 274 263 274 275 276 274 266 270 278 278 276
275 286 280 278 275 272 287 283 269 268 260 264 263 259 258 254 245 245 246 247 247 248 250 253 249 244 246 248 250 251 249 251 256 255 266 261 258 277 270 273 275 289 296 298 298 307 315 316 316 316 312 307 302 302
332 292 276 291 283 272 261 263 257 250 249 242 247 245 231 234 242 244 243 242 244 236 237 241 244 244 244 245 248 249 251 251 253 257 259 268 271 279 286 292 300 324 333 333 333 347 347 346 401 453 472 423 407 372
311 296 280 271 266 258 243 246 244 250 248 234 241 242 244 236 224 246 243 244 236 249 232 245 245 245 246 247 247 247 256 250 259 264 269 280 311 332 331 331 355 377 373 369 367 364 391 409 416 452 447 442 437 434
271 251 249 247 251 251 251 235 231 244 239 243 240 239 241 242 230 233 240 245 242 245 243 244 241 244 249 249 247 256 256 262 264 284 291 329 326 384 365 363 361 357 458 471 458 449 445 435 429 424 417 411 406 404
246 250 245 244 239 249 245 234 238 243 239 240 240 231 237 231 235 239 242 241 244 244 243 243 247 248 244 248 248 254 263 265 291 334 332 404 379 352 352 350 502 490 472 455 443 427 411 403 401 402 483 472 459 448
246 252 247 248 244 244 237 240 240 239 240 237 241 239 243 241 240 237 240 244 242 240 239 239 247 249 249 249 258 284 282 306 329 349 403 364 344 354 389 503 484 467 447 433 416 403 392 388 390 454 447 436 425 415
246 247 246 245 238 235 238 239 235 235 237 238 238 238 239 241 244 242 246 246 236 238 244 247 248 251 255 269 285 294 322 326 330 398 364 338 374 377 454 476 463 444 429 417 398 387 385 381 384 383 393 392 389 387
246 243 240 236 234 232 235 236 235 238 241 237 244 243 240 244 239 244 247 227 241 241 248 251 257 262 277 276 310 321 323 326 383 373 334 343 363 454 429 423 450 428 422 404 392 386 381 370 374 371 368 369 363 360
237 233 249 243 243 250 245 246 245 246 244 243 248 242 251 243 247 239 245 244 248 251 254 257 263 274 286 302 320 325 326 338 379 359 330 375 383 434 417 398 386 422 408 401 389 389 380 374 365 364 363 353 350 353
239 237 240 239 238 236 235 245 252 250 248 251 251 250 248 248 247 247 244 247 251 256 263 268 272 279 295 304 330 327 326 378 366 327 352 368 443 425 405 390 382 374 368 363 377 374 379 377 366 365 351 344 345 345
232 239 240 241 244 238 244 244 245 245 248 252 249 245 247 249 247 246 251 255 260 263 270 276 288 287 317 326 324 324 366 374 347 323 373 404 429 407 392 379 364 364 366 362 356 352 350 347 345 342 340 341 344 347
234 234 233 237 242 248 238 237 242 238 246 246 252 247 246 249 253 255 262 265 265 281 272 291 275 290 323 330 321 328 377 354 319 378 363 436 413 397 381 373 361 368 369 378 382 382 380 377 372 367 365 362 360 359
247 245 241 235 234 235 242 236 243 244 257 252 247 256 254 255 258 260 271 266 280 275 291 280 288 313 329 325 324 375 352 315 378 365 404 420 403 383 374 372 360 380 420 426 427 434 440 443 433 424 419 413 408 402
Wind_Speed
31 24 21 19 19 21 22 23 25 27 29 32 32 26 34 28 24 26 26 25 24 29 38 34 36 38 41 36 38 31 34 26 54 34 66 72 82 86 89 94 91 89 89 87 82 83 86 90 68 89 89 88 41 87
33 26 24 24 25 26 25 27 34 33 33 35 37 37 30 32 29 26 26 25 26 30 34 33 37 40 43 48 43 39 38 44 45 50 65 69 75 83 81 88 91 93 95 96 93 84 85 88 91 91 92 94 93 92
27 27 26 27 27 30 38 41 40 38 38 41 36 37 40 35 31 27 27 27 25 32 32 35 36 39 44 40 38 41 41 41 46 55 60 66 68 73 79 15 90 83 85 90 95 95 96 92 88 98 102 30 16 97
29 28 28 28 32 39 40 46 49 46 47 30 26 33 40 35 32 28 25 23 27 30 30 38 37 42 38 36 36 37 14 40 44 51 54 64 63 67 72 78 79 52 86 74 88 93 90 91 90 90 92 93 94 94
29 28 30 34 39 47 54 53 58 45 36 28 26 41 46 37 33 28 23 25 28 34 40 33 42 30 42 40 38 38 39 39 42 43 41 51 60 61 63 66 69 75 76 75 77 77 81 81 80 82 83 85 85 83
28 30 33 40 51 55 43 41 29 30 25 22 29 45 46 36 28 23 29 30 35 41 46 41 41 38 35 22 35 36 39 38 38 38 41 44 23 56 57 59 59 61 63 65 67 70 70 69 70 75 77 75 77 79
29 31 39 48 51 32 26 4 16 21 23 42 48 51 42 31 24 30 30 32 38 42 41 37 36 36 37 36 35 36 10 21 34 28 11 36 48 53 55 55 56 57 59 62 64 66 67 70 70 63 58 56 56 57
28 34 42 46 26 16 6 18 32 41 39 48 56 46 38 33 37 39 37 36 35 34 30 32 32 35 32 31 31 11 15 27 27 12 27 27 35 38 37 14 56 53 54 55 56 51 51 54 56 58 58 59 60 62
27 35 39 21 21 26 27 28 30 35 44 56 51 43 36 36 35 38 35 33 35 33 32 31 32 28 27 25 24 24 11 23 11 2 27 31 33 5 37 43 47 49 50 51 52 52 53 55 56 57 58 59 61 62
25 33 33 9 9 15 20 28 33 44 56 53 47 39 38 31 34 35 37 34 31 30 28 29 28 27 27 27 27 23 25 24 24 15 15 8 31 35 38 44 47 49 50 50 50 18 51 51 53 56 60 64 66 67
24 23 29 6 9 16 20 26 39 56 48 48 41 37 35 27 35 28 31 33 27 25 24 24 24 27 26 28 29 28 28 26 26 28 11 32 30 31 40 44 48 49 49 50 51 51 52 55 58 62 67 69 71 72
15 20 15 12 12 20 23 26 36 50 47 48 45 35 31 28 26 30 25 23 24 23 23 22 22 22 22 23 23 25 26 27 27 30 32 32 39 28 45 46 47 49 50 51 52 53 56 60 64 55 70 69 72 48
12 18 9 17 15 22 24 26 31 47 44 40 44 42 36 30 27 24 25 21 22 21 20 19 19 17 21 25 27 28 27 29 29 31 32 32 37 41 40 40 44 47 53 55 59 62 66 57 56 64 43 72 63 43
8 14 12 20 19 22 27 31 33 35 43 38 37 37 36 35 32 29 26 23 24 25 24 24 25 27 30 30 28 30 34 37 36 39 42 41 45 52 56 57 41 39 34 33 20 22 25 28 30 32 36 40 41 40
5 5 17 21 27 23 27 30 32 33 44 36 36 33 33 26 28 22 20 18 18 17 18 23 28 23 11 10 8 8 9 10 11 13 17 16 18 6 6 7 8 9 11 15 17 20 23 23 25 26 24 24 29 33
4 14 21 26 27 25 27 32 33 32 33 32 38 29 24 20 19 14 14 20 24 13 19 21 21 22 23 20 18 16 15 14 12 10 7 5 2 1 7 11 14 15 17 20 23 25 27 30 30 32 30 30 30 27
16 26 41 46 47 45 40 39 39 39 40 39 37 35 30 24 21 22 25 31 34 32 28 27 27 26 26 23 22 21 11 11 10 9 6 5 8 10 13 16 17 19 20 23 25 26 27 27 27 31 34 35 36 37
28 34 36 44 46 46 46 45 47 45 44 42 42 42 44 43 42 39 37 36 37 36 31 31 28 21 16 13 13 10 6 3 2 5 8 14 17 20 23 26 27 29 30 32 33 35 36 38 38 39 40 40 39 39
34 41 47 48 49 50 50 50 51 50 51 51 50 47 42 42 42 42 38 33 29 28 21 16 14 14 10 7 6 2 4 10 13 14 16 19 23 26 28 31 33 34 36 37 39 40 41 42 44 46 48 49 49 48
36 41 47 49 50 52 53 51 50 47 47 50 52 50 47 45 39 31 28 26 23 17 15 12 9 6 2 1 8 8 11 15 17 21 24 27 29 31 33 36 39 42 43 44 45 47 48 49 51 52 53 54 54 56
39 45 49 52 52 51 54 57 55 52 46 47 44 40 38 35 28 24 22 18 15 11 8 6 3 3 5 9 13 16 19 23 27 29 37 35 36 49 43 46 49 55 58 58 57 63 67 68 68 69 69 69 67 68
48 53 49 57 61 58 50 51 48 42 40 33 36 32 19 18 20 18 14 10 7 3 3 3 7 10 14 17 21 25 29 30 34 37 41 48 50 54 57 59 60 68 70 70 70 67 67 67 59 47 45 61 66 68
61 63 60 55 53 49 37 37 34 36 32 23 24 22 20 13 7 10 7 4 5 8 10 12 15 18 22 25 29 33 39 35 44 49 53 59 61 61 62 64 58 52 52 54 55 56 52 49 47 40 41 42 43 44
60 46 45 41 43 41 38 26 20 26 20 21 18 15 13 11 1 3 3 6 7 10 13 17 20 25 30 31 36 43 43 52 54 61 63 57 59 52 49 50 50 51 39 35 34 34 33 33 34 36 37 39 40 41
38 40 36 34 28 33 29 18 19 20 16 12 10 4 4 4 6 5 8 11 14 18 21 24 30 35 34 41 43 50 56 58 63 56 56 55 49 48 49 50 31 29 28 28 27 26 28 29 30 31 21 21 21 21
32 35 31 30 26 26 17 18 16 12 10 6 5 3 2 6 9 13 16 18 21 24 28 31 38 42 44 48 54 58 60 61 56 58 56 49 49 51 50 28 26 24 23 22 22 23 24 25 25 15 14 14 15 17
28 27 26 24 18 13 13 10 7 5 4 5 6 7 10 13 15 18 21 24 26 31 36 40 43 48 51 57 59 60 62 58 59 57 51 49 56 52 38 28 24 22 21 19 20 21 22 22 21 21 18 17 18 19
26 22 19 12 10 6 6 6 6 7 7 9 10 13 16 18 20 23 26 26 33 37 42 46 51 55 58 59 64 65 61 60 60 55 49 54 55 36 35 32 23 22 20 19 20 21 21 22 21 21 21 20 21 22
13 10 12 9 6 6 6 7 9 10 12 15 16 19 21 24 26 27 32 35 40 44 48 52 55 60 63 66 66 65 62 65 58 55 52 58 54 35 33 31 29 22 22 21 22 22 22 22 23 23 24 25 25 26
9 6 4 4 5 7 9 12 12 16 18 19 21 24 26 29 31 34 36 42 46 50 54 58 59 62 66 67 70 66 65 63 58 53 58 57 37 35 32 30 28 26 26 26 24 24 24 24 24 25 26 27 28 29
8 8 8 9 11 12 15 17 19 21 24 25 27 28 32 35 37 40 45 48 51 53 57 61 65 63 75 71 69 67 67 61 59 56 59 48 36 33 31 30 30 30 29 28 28 29 29 29 29 30 31 32 32 33
12 13 14 14 16 17 21 22 24 24 29 31 33 34 36 40 43 45 49 52 54 58 60 64 57 72 76 75 69 71 63 62 57 60 58 37 36 34 33 32 33 33 32 32 31 31 31 31 32 33 34 34 35 36
13 14 15 18 20 22 26 26 30 32 34 35 36 40 41 44 47 49 55 54 61 58 69 60 72 83 79 74 72 65 64 58 62 59 48 38 37 35 35 34 36 35 28 26 25 24 24 23 25 27 29 30 31 33
Wind_Direction
291 293 284 283 278 278 278 274 272 269 263 255 251 244 237 226 227 232 230 243 252 227 231 226 220 211 212 205 207 195 207 220 218 206 216 218 217 217 218 221 226 227 229 233 236 235 237 239 243 245 247 248 250 250
300 290 284 284 285 285 280 278 282 278 269 256 257 239 240 220 220 228 231 246 250 231 231 217 208 205 199 181 185 193 206 216 214 215 215 219 219 220 222 223 224 227 229 232 236 240 241 243 244 245 247 248 251 252
296 287 285 287 287 287 291 291 287 279 274 276 263 237 225 211 214 222 232 247 238 229 220 204 201 188 176 174 178 193 206 211 211 214 217 217 221 222 225 247 227 229 230 232 235 238 240 243 246 248 249 238 230 254
294 290 290 288 292 295 296 294 290 284 283 269 251 220 200 206 211 219 232 239 218 213 199 184 173 165 171 172 183 194 218 208 212 215 218 218 220 223 226 229 231 235 236 237 240 242 243 244 247 249 251 252 254 255
295 294 293 298 302 302 300 294 285 271 264 259 241 191 179 207 207 212 226 206 198 175 167 161 161 167 177 184 191 198 204 206 213 215 216 221 221 225 227 231 234 236 237 239 241 244 245 246 248 251 253 255 257 258
297 295 304 307 309 308 306 294 259 230 228 232 186 171 178 199 196 207 190 182 170 168 159 165 174 177 184 175 197 203 207 209 213 216 218 221 221 225 228 231 235 237 239 242 245 247 250 251 250 253 254 255 257 259
295 306 312 315 317 318 325 316 169 173 168 155 158 166 181 188 179 161 174 167 162 165 168 171 176 182 190 196 201 210 207 195 216 217 210 220 227 227 229 232 236 238 240 242 243 245 248 251 252 251 250 251 252 254
305 313 317 323 332 324 51 110 124 140 149 153 162 171 185 170 157 158 167 170 168 172 175 178 188 192 199 206 209 215 197 212 214 185 208 206 212 216 229 226 239 237 239 240 242 240 243 245 248 250 251 253 253 254
313 317 320 354 70 99 113 124 131 137 146 159 161 173 181 162 163 166 172 173 174 178 179 186 191 196 199 204 209 208 137 211 146 188 214 213 213 243 219 225 229 233 235 237 238 240 243 246 250 253 255 256 256 257
314 315 334 51 88 93 100 124 134 147 157 159 166 174 165 179 171 172 178 180 181 182 187 189 194 199 203 204 211 232 220 217 217 174 210 213 215 217 221 227 233 235 237 240 243 267 249 251 252 254 255 255 255 257
315 324 334 97 109 103 120 136 148 157 159 160 171 176 176 182 177 178 182 183 186 189 195 199 202 205 210 210 214 219 225 227 227 226 205 222 222 227 227 231 236 241 243 244 246 249 251 252 252 253 254 256 257 258
318 328 348 137 131 122 122 141 154 163 164 165 170 178 181 182 183 182 181 175 187 188 194 198 202 209 216 222 226 230 230 231 229 229 231 226 227 246 236 239 243 246 249 251 254 255 254 253 254 255 256 260 260 268
326 333 108 144 142 137 134 135 149 170 172 171 173 175 183 185 186 186 175 183 187 191 198 205 214 218 231 236 235 240 232 240 241 243 248 247 252 254 253 254 263 264 265 263 265 265 266 262 267 266 268 269 269 267
339 329 133 155 156 144 135 137 147 156 177 178 179 179 183 186 188 191 194 193 196 202 211 217 225 232 237 243 246 253 256 259 265 266 266 269 274 271 268 267 271 272 273 274 261 264 270 273 273 274 272 269 267 264
349 13 144 144 159 151 145 143 142 153 178 184 189 189 195 182 198 190 190 201 210 229 241 254 265 255 192 198 199 198 192 187 196 207 231 236 245 205 224 233 247 253 259 262 264 266 266 269 272 277 281 280 273 266
107 90 128 139 144 150 150 148 153 159 165 177 194 194 196 204 209 204 224 250 255 200 150 145 132 118 110 110 110 114 107 105 113 113 118 124 136 231 258 266 269 267 263 263 263 264 267 270 271 272 273 274 275 278
129 112 115 115 115 116 121 128 131 130 130 129 130 133 140 152 158 149 145 131 121 113 114 112 112 114 112 115 114 118 150 137 138 144 166 208 253 261 262 262 258 260 263 266 268 269 269 269 271 270 271 270 271 271
130 127 124 122 120 120 121 123 123 125 126 127 125 123 119 115 111 115 118 121 121 123 127 125 126 132 139 144 136 127 131 142 229 254 257 272 274 275 274 274 275 276 277 279 280 281 282 281 279 277 276 274 272 270
139 131 128 124 124 124 124 124 121 119 117 115 113 115 117 119 120 121 126 130 132 130 128 123 120 114 121 120 104 169 248 259 263 266 273 274 270 270 274 276 278 277 276 276 276 275 276 276 275 275 275 276 276 275
132 134 131 126 123 121 117 116 116 116 119 119 119 121 123 126 129 127 124 121 122 133 133 139 150 186 140 268 252 285 317 310 296 286 283 285 285 285 276 273 289 289 287 285 274 280 279 277 274 271 270 271 269 267
139 135 128 126 124 123 123 121 122 123 122 122 121 120 118 119 125 128 131 131 138 138 123 97 139 257 308 320 321 316 301 298 302 297 311 305 296 308 299 298 298 298 296 293 291 288 284 281 279 278 276 275 274 273
135 139 135 129 128 127 126 123 122 124 123 127 124 126 126 130 132 127 127 126 114 188 233 331 333 319 308 307 311 310 308 305 307 308 308 310 308 307 305 304 298 289 286 285 284 283 282 280 277 275 273 271 270 271
130 130 131 128 124 124 128 127 128 128 128 132 132 131 127 133 155 111 113 82 279 17 279 331 327 318 315 313 310 306 311 307 314 316 315 313 306 298 297 296 295 295 292 288 286 284 283 282 281 281 279 277 276 275
130 128 129 132 131 131 131 130 129 127 130 125 125 123 119 115 214 257 347 4 328 329 317 316 308 311 312 313 310 312 317 318 318 315 315 307 304 311 307 304 301 297 296 294 292 290 289 287 285 284 281 279 277 276
130 134 134 134 132 131 132 139 135 130 130 132 137 154 157 249 260 299 321 318 323 322 316 316 318 316 314 316 316 318 316 316 318 318 316 322 319 314 312 308 308 303 299 296 294 292 289 289 289 288 283 278 274 272
134 136 135 135 138 138 140 140 141 142 143 163 170 222 263 289 302 308 316 319 318 318 317 317 317 316 316 316 316 318 318 324 324 325 326 325 321 321 322 318 313 307 302 298 295 293 293 294 295 298 292 285 280 277
139 140 141 142 145 148 149 154 166 183 213 245 276 298 307 310 313 315 316 316 315 316 315 315 315 314 316 317 323 326 331 329 330 329 329 327 329 328 329 326 320 313 308 300 298 297 298 299 300 300 301 298 294 290
151 152 154 155 163 171 193 212 240 252 268 290 292 298 304 306 309 311 311 312 314 315 315 315 315 317 321 322 335 333 332 333 331 331 330 332 332 330 330 331 324 317 309 303 303 301 300 298 301 299 299 297 295 294
161 163 162 171 186 199 238 253 274 282 291 296 296 303 304 308 309 312 313 314 315 316 315 316 318 322 327 335 334 336 334 335 332 333 333 334 334 330 328 328 328 323 316 309 307 302 299 298 298 298 297 297 297 296
175 186 199 234 256 273 288 294 286 289 298 302 302 303 305 307 311 313 315 315 315 316 319 319 321 323 336 334 335 336 336 332 333 334 335 335 330 329 327 326 325 323 320 318 312 308 302 299 299 297 298 298 297 296
226 241 254 266 279 289 291 294 299 305 306 306 307 309 312 312 313 313 312 312 315 318 320 321 330 331 337 335 337 337 333 332 334 334 334 334 331 329 326 324 323 321 318 314 310 307 305 302 300 298 297 297 296 295
246 257 267 276 284 283 293 299 302 308 305 305 304 308 308 307 308 310 313 317 318 324 319 331 324 336 336 335 337 335 331 332 333 334 334 331 330 328 327 325 324 322 319 314 309 305 300 297 295 294 293 293 293 294
254 261 271 280 287 293 290 300 297 299 298 300 303 304 305 309 312 313 318 317 322 321 332 330 336 337 333 333 335 330 331 332 333 333 333 331 330 330 329 328 327 327 328 328 325 323 319 314 307 302 298 296 296 295